Location: Mococo
(38.0255°N, 122.1161°W)
Time: 00:27:10
(UTC+00:00)

BREEZE-M DEB (TANK) - Pass Details

Date: 13 February 2026
Orbit: 970 x 35648 km, 47.4° (Epoch: 10 March)

Event Time Altitude Azimuth Distance (km) Brightness Sun altitude
Exits shadow 12:38:52 50° 326° (NW) 1,394 4.0 -28.5°
Maximum altitude 12:39:11 51° 337° (NNW) 1,359 4.0 -28.4°
Drops below altitude 10° 12:44:06 10° 55° (NE) 2,739 6.6 -27.4°
Sets 12:46:34 0° 62° (ENE) 3,904 7.7 -27.0°
